(223991) = 2005 CT48

Discovered at Catalina on 2005-02-02 by CSS.

Orbit

Orbit type: Main Belt

Note: WebGL enabled browser required.

epoch2023-09-13.0
epoch JD2460200.5
perihelion date2021-11-04.08314
perihelion JD2459522.58314
argument of perihelion (°)5.16576
ascending node (°)139.86785
inclination (°)6.18718
eccentricity0.1169028
perihelion distance (AU)2.7754695
Tisserand w.r.t. Jupiter3.2
ΔV w.r.t. Earth (km/sec)10.6
semimajor axis (AU)3.1428810
mean anomaly (°)119.91911
mean daily motion (°/day)0.17689350
aphelion distance (AU)3.510
period (years)5.57
P-vector [x]-0.81915034
P-vector [y]0.52231299
P-vector [z]0.23702713
Q-vector [x]-0.56935658
Q-vector [y]-0.79049359
Q-vector [z]-0.22572764
absolute magnitude15.37
phase slope0.15
uncertainty0
referenceMPO 778567
observations used605
oppositions14
arc length (days)8134
first opposition used2000
last opposition used2022
residual rms (arc-secs)0.76
perturbers coarse indicatorM-v
perturbers precise indicator003Ek
first observation date used2000-03-09.0
last observation date used2022-06-16.0
computer nameMPCLINUX
JD of orbit computation2456909.318091
perihelion JD uncertainty (days)1.4564E-04
argument of perihelion uncertainty (°)4.2324E-05
ascending node uncertainty (°)3.5932E-05
inclination uncertainty (°)6.4048E-06
eccentricity uncertainty 5.8755E-08
perihelion distance uncertainty (AU)1.7248E-07
Minimum Orbit Intersection Distances (in AU)
for orbit epoch: 2460200.5, reference: E2023-V24
Mercury2.4191
Venus2.05784
Earth1.78639
Mars1.11194
Jupiter1.49692
Saturn6.01536
Uranus15.6431
Neptune26.4578

Observations

629 total observations over interval: 2000 03 09.46108 – 2022 06 16.174948
These data are available for download (format description).

Date (UT) J2000 RA J2000 Dec Magn Location Ref
2000 03 09.46108 13 58 14.27 -04 23 18.0 20.6 V 691 – Steward Observatory, Kitt Peak-Spacewatch MPS 263220
2000 03 09.48203 13 58 13.89 -04 23 12.2 20.7 V 691 – Steward Observatory, Kitt Peak-Spacewatch MPS 263220
2000 03 09.50311 13 58 13.55 -04 23 07.0 20.1 V 691 – Steward Observatory, Kitt Peak-Spacewatch MPS 263220
2005 02 02.35348 09 58 29.59 +12 46 29.3 18.7 R 703 – Catalina Sky Survey MPS 126461
2005 02 02.36097 09 58 29.25 +12 46 31.2 19.0 R 703 – Catalina Sky Survey MPS 126461
2005 02 02.36850 09 58 28.95 +12 46 34.8 18.3 R 703 – Catalina Sky Survey MPS 126461
2005 02 02.37138 09 58 28.75 +12 46 34.0 19.7   704 – Lincoln Laboratory ETS, New Mexico MPS 126839
2005 02 02.37598 09 58 28.66 +12 46 37.3 18.3 R 703 – Catalina Sky Survey MPS 126461
2005 02 02.38528 09 58 28.22 +12 46 39.8 19.4   704 – Lincoln Laboratory ETS, New Mexico MPS 126839
2005 02 02.39824 09 58 27.67 +12 46 45.1 19.4   704 – Lincoln Laboratory ETS, New Mexico MPS 126839
2005 02 09.28835 09 53 27.92 +13 29 38.5 18.9   704 – Lincoln Laboratory ETS, New Mexico MPS 126461
2005 02 09.29395 09 53 27.67 +13 29 40.5 18.7 R 699 – Lowell Observatory-LONEOS MPS 126839
2005 02 09.30181 09 53 27.31 +13 29 44.5 19.5   704 – Lincoln Laboratory ETS, New Mexico MPS 126461
2005 02 09.31565 09 53 26.58 +13 29 49.5 19.4   704 – Lincoln Laboratory ETS, New Mexico MPS 126461
2005 02 09.31830 09 53 26.49 +13 29 49.8   699 – Lowell Observatory-LONEOS MPS 126839
2005 02 09.32867 09 53 25.97 +13 29 54.6 19.4   704 – Lincoln Laboratory ETS, New Mexico MPS 126461
2005 02 09.34263 09 53 25.35 +13 29 59.2   699 – Lowell Observatory-LONEOS MPS 126839
2005 02 09.36697 09 53 24.21 +13 30 08.5   699 – Lowell Observatory-LONEOS MPS 126839
2005 03 02.23836 09 38 03.48 +15 35 32.4 19.2 R 703 – Catalina Sky Survey MPS 127224
2005 03 02.24688 09 38 03.06 +15 35 34.3 18.9 R 703 – Catalina Sky Survey MPS 127224
2005 03 02.25539 09 38 02.79 +15 35 38.2 18.9 R 703 – Catalina Sky Survey MPS 127224
2005 03 02.26387 09 38 02.27 +15 35 39.7 20.1 R 703 – Catalina Sky Survey MPS 127224
2005 03 08.24363 09 34 25.81 +16 05 18.2 19.5   704 – Lincoln Laboratory ETS, New Mexico MPS 128035
2005 03 08.25611 09 34 25.38 +16 05 21.1 20.4   704 – Lincoln Laboratory ETS, New Mexico MPS 128035
2005 03 08.26772 09 34 24.96 +16 05 24.4 19.9   704 – Lincoln Laboratory ETS, New Mexico MPS 128035
2005 03 08.27918 09 34 24.58 +16 05 27.1 20.0   704 – Lincoln Laboratory ETS, New Mexico MPS 128035
2005 03 10.209047 09 33 22.870 +16 14 05.84 19.66 V 645 – Apache Point-Sloan Digital Sky Survey MPS 390327
2005 03 10.212519 09 33 22.752 +16 14 06.68 20.15   645 – Apache Point-Sloan Digital Sky Survey MPS 390327
2005 03 10.24476 09 33 21.72 +16 14 15.3 18.7 R G96 – Mt. Lemmon Survey MPS 128035
2005 03 10.25274 09 33 21.46 +16 14 17.4 18.8 R G96 – Mt. Lemmon Survey MPS 128035
2005 03 10.254257 09 33 21.392 +16 14 17.58 19.53 V 645 – Apache Point-Sloan Digital Sky Survey MPS 390327
2005 03 10.257729 09 33 21.282 +16 14 18.50 20.25   645 – Apache Point-Sloan Digital Sky Survey MPS 390327
2005 03 10.26076 09 33 21.20 +16 14 19.4 18.7 R G96 – Mt. Lemmon Survey MPS 128035
2005 03 10.26871 09 33 20.94 +16 14 21.6 18.8 R G96 – Mt. Lemmon Survey MPS 128035
2005 03 11.23713 09 32 51.65 +16 18 31.4 19.3   704 – Lincoln Laboratory ETS, New Mexico MPS 129147
2005 03 11.24884 09 32 51.35 +16 18 33.3 19.3   704 – Lincoln Laboratory ETS, New Mexico MPS 129147
2005 03 11.26045 09 32 50.99 +16 18 37.6 20.0   704 – Lincoln Laboratory ETS, New Mexico MPS 129147
2005 03 11.27566 09 32 50.43 +16 18 40.4 19.7   704 – Lincoln Laboratory ETS, New Mexico MPS 129147
2005 03 11.28835 09 32 50.03 +16 18 44.3 19.4   704 – Lincoln Laboratory ETS, New Mexico MPS 129147
2005 03 12.202567 09 32 23.633 +16 22 31.57 19.61 V 645 – Apache Point-Sloan Digital Sky Survey MPS 390327
2005 03 12.206039 09 32 23.530 +16 22 32.35 20.26   645 – Apache Point-Sloan Digital Sky Survey MPS 390327
2005 03 17.16553 09 30 18.31 +16 41 12.5 19.1   704 – Lincoln Laboratory ETS, New Mexico MPS 129147
2005 03 17.17613 09 30 18.09 +16 41 13.2 19.5   704 – Lincoln Laboratory ETS, New Mexico MPS 129147
2005 03 17.18672 09 30 17.79 +16 41 16.2 19.6   704 – Lincoln Laboratory ETS, New Mexico MPS 129147
2005 03 17.20792 09 30 17.24 +16 41 20.8 19.2   704 – Lincoln Laboratory ETS, New Mexico MPS 129147
2005 05 10.161767 09 44 08.567 +16 30 18.31 20.58 V 645 – Apache Point-Sloan Digital Sky Survey MPS 390327
2005 05 10.165239 09 44 08.733 +16 30 17.55 21.30   645 – Apache Point-Sloan Digital Sky Survey MPS 390327
2007 06 21.34309 21 07 07.03 -14 04 13.2 21.2 V G96 – Mt. Lemmon Survey MPS 263220
2007 06 21.34966 21 07 06.88 -14 04 14.5 20.8 V G96 – Mt. Lemmon Survey MPS 263220
2007 06 21.35615 21 07 06.78 -14 04 14.2 21.1 V G96 – Mt. Lemmon Survey MPS 263220
2007 06 21.36265 21 07 06.70 -14 04 15.7 20.9 V G96 – Mt. Lemmon Survey MPS 263220
2007 11 02.09178 20 31 44.86 -19 06 12.5 21.6 V G96 – Mt. Lemmon Survey MPS 263220
2007 11 02.09740 20 31 45.08 -19 06 12.2 21.0 V G96 – Mt. Lemmon Survey MPS 263220
2007 11 02.10300 20 31 45.26 -19 06 11.6 21.4 V G96 – Mt. Lemmon Survey MPS 263220
2007 11 02.10863 20 31 45.51 -19 06 10.7 21.4 V G96 – Mt. Lemmon Survey MPS 263220
2008 09 04.36429 01 06 27.12 +00 31 51.3 20.1 V 691 – Steward Observatory, Kitt Peak-Spacewatch MPS 263220
2008 09 04.38187 01 06 26.65 +00 31 46.6 20.4 V 691 – Steward Observatory, Kitt Peak-Spacewatch MPS 263220
2008 09 04.39942 01 06 26.19 +00 31 41.6 20.5 V 691 – Steward Observatory, Kitt Peak-Spacewatch MPS 263220
2008 10 02.39963 00 49 53.04 -02 00 00.4 19.7 V G96 – Mt. Lemmon Survey MPS 263220
2008 10 02.40715 00 49 52.71 -02 00 02.8 19.7 V G96 – Mt. Lemmon Survey MPS 263220
2008 10 02.41469 00 49 52.39 -02 00 05.2 19.6 V G96 – Mt. Lemmon Survey MPS 263220
2008 10 02.42234 00 49 52.03 -02 00 07.9 19.6 V G96 – Mt. Lemmon Survey MPS 263220
2008 10 27.17088 00 33 25.95 -03 52 52.8 19.6 V G96 – Mt. Lemmon Survey MPS 263220
2008 10 27.17577 00 33 25.77 -03 52 54.0 20.2 V G96 – Mt. Lemmon Survey MPS 263220
2008 10 27.18074 00 33 25.59 -03 52 54.5 20.2 V G96 – Mt. Lemmon Survey MPS 263220
2008 10 27.18560 00 33 25.41 -03 52 55.4 19.8 V G96 – Mt. Lemmon Survey MPS 263220
2008 11 02.17048 00 30 20.26 -04 09 44.6 20.4 V G96 – Mt. Lemmon Survey MPS 263220
2008 11 02.18101 00 30 19.98 -04 09 45.9 20.4 V G96 – Mt. Lemmon Survey MPS 263220
2008 11 02.19152 00 30 19.65 -04 09 46.9 20.5 V G96 – Mt. Lemmon Survey MPS 263220
2008 11 02.20204 00 30 19.33 -04 09 48.7 20.8 V G96 – Mt. Lemmon Survey MPS 263220
2009 10 14.45454 06 13 15.99 +16 45 21.2 20.2 V G96 – Mt. Lemmon Survey MPS 298307
2009 10 14.45995 06 13 16.10 +16 45 20.7 19.8 V G96 – Mt. Lemmon Survey MPS 298307
2009 10 14.46540 06 13 16.28 +16 45 20.2 20.5 V G96 – Mt. Lemmon Survey MPS 298307
2009 10 14.47116 06 13 16.39 +16 45 19.8 20.1 V G96 – Mt. Lemmon Survey MPS 298307
2009 10 15.45880 06 13 39.68 +16 43 45.4 19.7 V G96 – Mt. Lemmon Survey MPS 298307
2009 10 15.46382 06 13 39.75 +16 43 44.7 19.8 V G96 – Mt. Lemmon Survey MPS 298307
2009 10 15.46874 06 13 39.86 +16 43 44.4 19.8 V G96 – Mt. Lemmon Survey MPS 298307
2009 10 15.47391 06 13 40.00 +16 43 43.9 19.6 V G96 – Mt. Lemmon Survey MPS 298307
2010 03 09.192376 05 34 33.95 +19 17 42.2   C51 – WISE MPS 337156
2010 03 09.324679 05 34 39.59 +19 18 05.2   C51 – WISE MPS 337156
2010 03 09.456984 05 34 45.26 +19 18 28.3   C51 – WISE MPS 337156
2010 03 09.589288 05 34 50.99 +19 18 51.6   C51 – WISE MPS 319177
2010 03 09.655503 05 34 53.82 +19 19 03.2   C51 – WISE MPS 319177
2010 03 09.72172 05 34 56.69 +19 19 14.5   C51 – WISE MPS 319177
2010 03 09.787808 05 34 59.55 +19 19 26.4   C51 – WISE MPS 319177
2010 03 09.854023 05 35 02.30 +19 19 38.1   C51 – WISE MPS 337156
2010 03 09.920111 05 35 05.28 +19 19 49.5   C51 – WISE MPS 337156
2010 03 10.052416 05 35 11.07 +19 20 12.8   C51 – WISE MPS 337156
2010 03 10.052543 05 35 11.05 +19 20 12.5   C51 – WISE MPS 337156
2010 03 10.184847 05 35 16.85 +19 20 35.5   C51 – WISE MPS 319177
2010 03 10.317150 05 35 22.65 +19 20 58.8   C51 – WISE MPS 319177
2010 12 09.50992 12 19 30.31 +00 34 56.5 21.1 V 691 – Steward Observatory, Kitt Peak-Spacewatch MPS 362524
